Regional Weather Roundup
Issued by NWS Northern Indiana

Home | Current Version | Previous Version | Text Only | Print | Product List | Glossary On
Versions: 1 2 3 4 5 6 7 8 9 10 11 12 13 14 15 16 17 18 19 20 21 22 23 24 25 26 27 28 29 30 31 32 33 34 35 36 37 38 39 40 41 42 43 44 45 46 47 48 49 50
000
ASUS43 KIWX 101110
RWRIWX

KIWX WEATHER ROUNDUP
NATIONAL WEATHER SERVICE NORTHERN INDIANA
600 AM EST WED FEB 10 2016

NOTE: "FAIR" INDICATES FEW OR NO CLOUDS BELOW 12,000 FEET WITH NO
SIGNIFICANT WEATHER AND/OR OBSTRUCTIONS TO VISIBILITY.

* THESE STATIONS ARE NOT UNDER NWS QUALITY CONTROL. THEY ALSO MAY NOT
  REPORT WEATHER SUCH AS PRECIPITATION OR FOG.

INZ001>027-101200-
NORTHERN INDIANA

CITY           SKY/WX    TMP DP  RH WIND       PRES   REMARKS
GARY*          PTCLDY    14   1  57 W17G29    29.98R WCI  -3
VALPARAISO     CLOUDY    14   6  70 NW15      29.93R WCI  -1
MICHIGAN CITY* LGT SNOW  19  14  79 NW13G22   29.92S WCI   7
LAPORTE*       LGT SNOW  18  15  88 W9G17     29.91R WCI   7
KNOX*          CLOUDY    16  10  79 W15       29.92R WCI   1
SOUTH BEND     LGT SNOW  17  14  88 NW14      29.88R VSB 1   WCI   3
GOSHEN         LGT SNOW  19  15  84 NW10      29.85R FOG     WCI   7
MONTICELLO*    CLOUDY    14   4  63 NW15      29.95R WCI  -1
LOGANSPORT*    CLOUDY    14   7  73 W12G18    29.95R WCI   0
ROCHESTER*     CLOUDY    18   9  68 W10G18    29.91R WCI   6
WARSAW*        LGT SNOW  16  12  86 W13       29.87R WCI   2
ANGOLA*        CLOUDY    18  14  86 NW7       29.80R WCI   8
FORT WAYNE     LGT SNOW  17  11  77 W20       29.87R WCI   1
HUNTINGTON*    FLURRIES  14   7  76 W15       29.88R WCI  -2
PERU/GRISSOM   FLURRIES  14   9  79 W14       29.91R WCI  -1
MARION*        CLOUDY    13   4  68 W16       29.92R HAZE    WCI  -3

$$
INZ028>050-101200-
CENTRAL INDIANA

CITY           SKY/WX    TMP DP  RH WIND       PRES   REMARKS
LAFAYETTE      CLOUDY    13   6  74 W12       29.99R WCI  -1
KOKOMO*        CLOUDY    12   7  79 W15       29.93R WCI  -4
MUNCIE*        LGT SNOW  15   9  76 W14       29.91R WCI   0
INDIANAPOLIS   FLURRIES  13   6  74 W15       29.97R WCI  -3

$$
MIZ043>046-050>051-056>058-064>065-071>073-077>080-101200-
SOUTHWEST LOWER MICHIGAN

CITY           SKY/WX    TMP DP  RH WIND       PRES   REMARKS
BATTLE CREEK   CLOUDY    19  12  74 NW10      29.80R WCI   7
BENTON HARBOR  LGT SNOW  21  13  71 NW10G22   29.88R WCI  10
COLDWATER*     LGT SNOW  19  15  85 W7        29.80R WCI   9
HILLSDALE*     FLURRIES  17  12  79 W12       29.76R WCI   4
HOLLAND        LGT SNOW  20  15  81 NW9       29.85R VSB 1   WCI   9
GRAND RAPIDS   FLURRIES  19  13  77 NW15G26   29.81R WCI   5
KALAMAZOO      LGT SNOW  19  13  77 NW10      29.82R WCI   7
STURGIS*       LGT SNOW  18  15  88 NW5       29.82R WCI  11
THREE RIVERS*  LGT SNOW  19  16  86 W3        29.84R

$$
OHZ001>008-015>018-024>025-101200-
NORTHWEST OHIO

CITY           SKY/WX    TMP DP  RH WIND       PRES   REMARKS
DEFIANCE       CLOUDY    21  15  78 W8        29.83R WCI  11
FINDLAY        FLURRIES  19  13  77 W18G26    29.81R WCI   4
TOLEDO EXPRESS CLOUDY    21  16  81 W15       29.78R WCI   8
TOLEDO METCALF CLOUDY    22  16  78 W15       29.79R WCI   9
LIMA           LGT SNOW  16  13  88 W15       29.83R FOG     WCI   1

$$
AND FOR LAKE MICHIGAN COASTAL AND OPEN LAKE BUOY OBSERVATIONS

STATION/POSITION TEMP    WIND        PRES    VSBY  WAVE
                 AIR SEA DIR/SP/G                  HT/PER
                 (F)     (DEG/KT/KT) (MB)    (MI)  (FT/S)
CALUMET HARBOR    12     300/ 10/ 14 1014.4R
MICHIGAN CITY     19     280/ 25/ 28   N/A
BURNS HARBOR      17     310/ 20/ 25 1013.9R
SAINT JOSEPH      22     300/ 20/ 25 1012.9S

$$
&&



USA.gov is the U.S. government's official web portal to all federal, state and local government web resources and services.